OPS 4682 DEB, 19593

Orbit data source: Space-Track

OPS 4682 DEB, 19593 is space debris in LEO originally from a launch on Sat, 03 Apr 1965 UTC launched from the Air Force Western Test Range (AFWTR). Debris objects in space refer to the collection of defunct objects orbiting the Earth. Examples of debris include non-operational satellites, rocket bodies, and fragments generated from explosions, collisions, or faulty payload assembly.

Loading next visibility...
Identifier
19593, 1965-027AW
Orbit
LEO
Country
Flag of USUS
Related business
Manufacturer
Unknown
Mission
Spacecraft
Bus & Motor
Unknown
Mass
Unknown
Launch date (UTC)
1965-04-03 (61 years ago)
Launch vehicle
Unknown
Launch site
Air Force Western Test Range (AFWTR)
Object type
Payload
Rocket body
Debris
Shape & HBR
Unknown shape, 0.1 m
Radar Cross Section
Medium (>0.1 m² and <1 m²)

Expand to show TLE details & history
Last TLE update: 11 hours ago

TLE from 11 hours ago
0 OPS 4682 DEB
1 19593U 65027AW  26263.08470634 -.00000261  00000-0 -94336-3 0  9997
2 19593  90.2494   8.7135 0028581 225.0614 312.1067 12.95808454814408
Epoch: 2026-09-20T02:01Z
TLE epoch observation values (Epoch: 2026-09-20T02:01:58.627Z)
Latitude
2.98073°
Longitude
159.24818°
Altitude
1,266.452 km
Speed
7.229 km/s
True Right ascension
12h 34m 54s
True Declination
2° 57' 51"
Sunlit
Object was in daylight at epoch
Visualization orbit readout
Latitude
Unknown
Longitude
Unknown
Altitude
Unknown
Speed
Unknown
Apparent Right ascension
Unknown
Apparent Declination
Unknown
Sunlit
N/A
Visualization observer readout
Local Sidereal Time
06:09:45
Azimuth
Unknown
Elevation
Unknown
Doppler factor
Unknown
Orbital elements
Apogee altitude
1,297.562 km
Perigee altitude
1,253.811 km
Semi-major axis
7,653.824 km
Eccentricity
0.00286
Inclination
90.2494°
RAAN
8.7135°
Arg. of periapsis
225.0614°
True anomaly
311.86314°
Mean anomaly
312.1067°
Eccentric anomaly
311.98498°
Mean motion
3.24135 °/min
Orbital period
111.06 mins
BSTAR
-0.00094336
Loading maneuver chart data...
Computing Atmospheric mass density...
Loading historical data...
Loading historical data...
Loading historical data...
Loading historical data...
Loading historical data...
Loading historical data...
Loading historical data...

Documentation

Showing up to 5 results
|